| time (UTC) | temp F | wind direction | speed knots | gust knots | rain 1hr in | rain 24hr in | rain mn in | humidity % | barometer mb |
| 20260831094702 | 72 | 186 | 0.0 | 0.0 | 0.00 | 0.00 | 0.00 | 80 | 1018.3 |
| 20260831094158 | 72 | 293 | 0.0 | 0.0 | 0.00 | 0.00 | 0.00 | 79 | 1018.3 |
| 20260831093654 | 72 | 136 | 0.0 | 0.0 | 0.00 | 0.00 | 0.00 | 80 | 1018.2 |
| 20260831093149 | 72 | 145 | 0.0 | 0.0 | 0.00 | 0.00 | 0.00 | 79 | 1018.3 |
| 20260831092645 | 72 | 290 | 0.0 | 0.0 | 0.00 | 0.00 | 0.00 | 79 | 1018.1 |
| 20260831092141 | 72 | 133 | 0.0 | 0.0 | 0.00 | 0.00 | 0.00 | 79 | 1018.2 |
| 20260831091640 | 72 | 154 | 0.0 | 0.0 | 0.00 | 0.00 | 0.00 | 79 | 1018.2 |
| 20260831091136 | 72 | 285 | 0.0 | 0.0 | 0.00 | 0.00 | 0.00 | 79 | 1018.1 |
| 20260831090631 | 72 | 115 | 0.0 | 0.0 | 0.00 | 0.00 | 0.00 | 80 | 1018.1 |
| 20260831090127 | 72 | 115 | 0.0 | 0.0 | 0.00 | 0.00 | 0.00 | 80 | 1017.7 |
| 20260831085622 | 72 | 133 | 0.0 | 0.0 | 0.00 | 0.00 | 0.00 | 79 | 1018.0 |
| 20260831085118 | 72 | 142 | 0.0 | 0.0 | 0.00 | 0.00 | 0.00 | 78 | 1017.9 |
| 20260831084614 | 72 | 144 | 0.0 | 0.0 | 0.00 | 0.00 | 0.00 | 78 | 1017.8 |
| 20260831084109 | 72 | 175 | 0.0 | 0.0 | 0.00 | 0.00 | 0.00 | 78 | 1018.1 |
| 20260831083605 | 72 | 164 | 0.0 | 0.0 | 0.00 | 0.00 | 0.00 | 77 | 1018.1 |
| 20260831083100 | 73 | 134 | 0.0 | 0.0 | 0.00 | 0.00 | 0.00 | 78 | 1018.2 |
| 20260831082553 | 73 | 169 | 0.0 | 0.0 | 0.00 | 0.00 | 0.00 | 78 | 1018.0 |
| 20260831082049 | 73 | 146 | 0.0 | 0.0 | 0.00 | 0.00 | 0.00 | 77 | 1017.8 |
| 20260831081544 | 73 | 176 | 0.0 | 0.0 | 0.00 | 0.00 | 0.00 | 77 | 1017.9 |
| 20260831081040 | 73 | 129 | 0.0 | 0.0 | 0.00 | 0.00 | 0.00 | 77 | 1017.9 |
| 20260831080540 | 73 | 194 | 0.0 | 0.0 | 0.00 | 0.00 | 0.00 | 76 | 1018.0 |
| 20260831080030 | 73 | 171 | 0.0 | 0.0 | 0.00 | 0.00 | 0.00 | 76 | 1018.2 |
| 20260831075525 | 73 | 207 | 0.0 | 0.0 | 0.00 | 0.00 | 0.00 | 76 | 1017.8 |
| 20260831075020 | 73 | 197 | 0.0 | 0.0 | 0.00 | 0.00 | 0.00 | 76 | 1018.1 |
| 20260831074515 | 73 | 321 | 0.0 | 0.0 | 0.00 | 0.00 | 0.00 | 77 | 1018.2 |
| 20260831074014 | 73 | 174 | 0.0 | 0.0 | 0.00 | 0.00 | 0.00 | 76 | 1018.1 |
| 20260831073509 | 73 | 167 | 0.0 | 0.0 | 0.00 | 0.00 | 0.00 | 77 | 1018.2 |
| 20260831073009 | 73 | 222 | 0.0 | 0.0 | 0.00 | 0.00 | 0.00 | 77 | 1018.1 |
| 20260831072504 | 73 | 175 | 0.0 | 0.0 | 0.00 | 0.00 | 0.00 | 77 | 1018.1 |
| 20260831072000 | 73 | 171 | 0.0 | 0.0 | 0.00 | 0.00 | 0.00 | 78 | 1017.9 |
| 20260831071459 | 73 | 209 | 0.0 | 0.0 | 0.00 | 0.00 | 0.00 | 77 | 1018.0 |
| 20260831070954 | 73 | 192 | 0.0 | 0.0 | 0.00 | 0.00 | 0.00 | 77 | 1018.2 |
| 20260831070453 | 73 | 182 | 0.0 | 0.0 | 0.00 | 0.00 | 0.00 | 78 | 1018.1 |
| 20260831065952 | 73 | 204 | 0.0 | 0.0 | 0.00 | 0.00 | 0.00 | 78 | 1018.2 |
| 20260831065450 | 73 | 214 | 0.0 | 0.0 | 0.00 | 0.00 | 0.00 | 78 | 1018.0 |
| 20260831064945 | 73 | 200 | 0.0 | 0.0 | 0.00 | 0.00 | 0.00 | 78 | 1018.1 |
| 20260831064440 | 73 | 122 | 0.0 | 0.0 | 0.00 | 0.00 | 0.00 | 79 | 1018.4 |
| 20260831063936 | 73 | 144 | 0.0 | 0.0 | 0.00 | 0.00 | 0.00 | 79 | 1018.2 |
| 20260831063431 | 73 | 150 | 0.0 | 0.0 | 0.00 | 0.00 | 0.00 | 78 | 1018.0 |
| 20260831062925 | 73 | 196 | 0.0 | 0.0 | 0.00 | 0.00 | 0.00 | 79 | 1018.2 |
| 20260831062421 | 73 | 109 | 0.0 | 0.0 | 0.00 | 0.00 | 0.00 | 78 | 1018.0 |
| 20260831061919 | 74 | 176 | 0.0 | 0.0 | 0.00 | 0.00 | 0.00 | 78 | 1018.1 |
| 20260831061418 | 74 | 171 | 0.0 | 0.0 | 0.00 | 0.00 | 0.00 | 77 | 1018.2 |
| 20260831060915 | 73 | 159 | 0.0 | 0.0 | 0.00 | 0.00 | 0.00 | 78 | 1018.4 |
| 20260831060410 | 74 | 189 | 0.0 | 0.0 | 0.00 | 0.00 | 0.00 | 78 | 1018.3 |
| 20260831055909 | 74 | 199 | 0.0 | 0.0 | 0.00 | 0.00 | 0.00 | 77 | 1018.2 |
| 20260831055404 | 74 | 140 | 0.0 | 0.0 | 0.00 | 0.00 | 0.00 | 79 | 1018.4 |
| 20260831054859 | 74 | 136 | 0.0 | 0.0 | 0.00 | 0.00 | 0.00 | 78 | 1018.5 |
| 20260831054354 | 74 | 222 | 0.0 | 0.0 | 0.00 | 0.00 | 0.00 | 77 | 1018.3 |
| 20260831053848 | 74 | 205 | 0.0 | 0.0 | 0.00 | 0.00 | 0.00 | 77 | 1018.3 |
| 20260831053346 | 74 | 196 | 0.0 | 0.0 | 0.00 | 0.00 | 0.00 | 78 | 1017.9 |
| 20260831052840 | 74 | 18 | 0.0 | 0.0 | 0.00 | 0.00 | 0.00 | 79 | 1018.0 |
| 20260831052335 | 74 | 171 | 0.0 | 0.0 | 0.00 | 0.00 | 0.00 | 81 | 1018.1 |
| 20260831051833 | 74 | 173 | 0.0 | 0.0 | 0.00 | 0.00 | 0.00 | 80 | 1018.2 |
| 20260831051332 | 75 | 183 | 0.0 | 0.0 | 0.00 | 0.00 | 0.00 | 81 | 1018.5 |
| 20260831050826 | 75 | 205 | 0.0 | 0.0 | 0.00 | 0.00 | 0.00 | 80 | 1018.5 |
| 20260831050326 | 75 | 144 | 0.0 | 0.0 | 0.00 | 0.00 | 0.00 | 80 | 1018.5 |
| 20260831045820 | 75 | 190 | 0.0 | 0.0 | 0.00 | 0.00 | 0.00 | 82 | 1018.4 |
| 20260831045314 | 75 | 116 | 0.0 | 0.0 | 0.00 | 0.00 | 0.00 | 82 | 1018.5 |
| 20260831044809 | 75 | 194 | 0.0 | 0.0 | 0.00 | 0.00 | 0.00 | 82 | 1018.5 |
| 20260831044304 | 75 | 123 | 0.0 | 0.0 | 0.00 | 0.00 | 0.00 | 82 | 1018.2 |
| 20260831043800 | 75 | 177 | 0.0 | 0.0 | 0.00 | 0.00 | 0.00 | 82 | 1018.3 |
| 20260831043254 | 75 | 177 | 0.0 | 0.0 | 0.00 | 0.00 | 0.00 | 83 | 1018.1 |
| 20260831042749 | 75 | 136 | 0.0 | 0.0 | 0.00 | 0.00 | 0.00 | 82 | 1018.3 |
| 20260831042243 | 75 | 141 | 0.0 | 0.0 | 0.00 | 0.00 | 0.00 | 82 | 1018.2 |
| 20260831041738 | 75 | 191 | 0.0 | 0.0 | 0.00 | 0.00 | 0.00 | 82 | 1018.0 |
| 20260831041237 | 75 | 188 | 0.0 | 0.0 | 0.00 | 0.00 | 0.00 | 82 | 1018.0 |
| 20260831040732 | 75 | 187 | 0.0 | 0.0 | 0.00 | 0.00 | 0.00 | 82 | 1018.0 |
| 20260831040232 | 75 | 207 | 0.0 | 0.0 | 0.00 | 0.00 | 0.00 | 83 | 1017.9 |
| 20260831035725 | 75 | 126 | 0.0 | 0.0 | 0.00 | 0.00 | 0.00 | 84 | 1017.8 |
| 20260831035224 | 75 | 184 | 0.0 | 0.0 | 0.00 | 0.00 | 0.00 | 84 | 1018.1 |
| 20260831034723 | 75 | 177 | 0.0 | 0.0 | 0.00 | 0.00 | 0.00 | 84 | 1017.9 |
| 20260831034220 | 75 | 57 | 0.0 | 0.0 | 0.00 | 0.00 | 0.00 | 83 | 1018.1 |
| 20260831033715 | 75 | 178 | 0.0 | 0.0 | 0.00 | 0.00 | 0.00 | 83 | 1018.0 |
| 20260831033214 | 75 | 177 | 0.0 | 0.0 | 0.00 | 0.00 | 0.00 | 83 | 1018.1 |
| 20260831032709 | 75 | 177 | 0.0 | 0.0 | 0.00 | 0.00 | 0.00 | 83 | 1018.0 |
| 20260831032205 | 75 | 178 | 0.0 | 0.0 | 0.00 | 0.00 | 0.00 | 86 | 1018.0 |
| 20260831031659 | 75 | 185 | 0.0 | 0.0 | 0.00 | 0.00 | 0.00 | 88 | 1018.0 |
| 20260831031159 | 74 | 181 | 0.0 | 0.0 | 0.00 | 0.00 | 0.00 | 90 | 1017.7 |
| 20260831030658 | 74 | 162 | 0.0 | 0.0 | 0.00 | 0.00 | 0.00 | 90 | 1017.7 |
| 20260831030157 | 74 | 144 | 0.0 | 0.0 | 0.00 | 0.00 | 0.00 | 91 | 1017.7 |
| 20260831025656 | 74 | 121 | 0.0 | 0.0 | 0.00 | 0.05 | 0.05 | 91 | 1017.9 |
| 20260831025150 | 74 | 167 | 0.0 | 0.0 | 0.00 | 0.05 | 0.05 | 91 | 1018.1 |
| 20260831024648 | 75 | 145 | 0.0 | 0.0 | 0.00 | 0.05 | 0.05 | 90 | 1017.9 |
| 20260831024145 | 75 | 153 | 0.0 | 0.0 | 0.00 | 0.05 | 0.05 | 90 | 1018.1 |
| 20260831023644 | 74 | 181 | 0.0 | 0.0 | 0.00 | 0.05 | 0.05 | 90 | 1018.3 |
| 20260831023137 | 74 | 160 | 0.0 | 0.0 | 0.00 | 0.05 | 0.05 | 90 | 1018.4 |
| 20260831022632 | 74 | 77 | 0.0 | 0.0 | 0.00 | 0.05 | 0.05 | 92 | 1018.6 |
| 20260831022127 | 74 | 189 | 0.0 | 0.0 | 0.07 | 0.05 | 0.05 | 93 | 1018.4 |
| 20260831021626 | 74 | 197 | 0.0 | 0.0 | 0.07 | 0.05 | 0.05 | 94 | 1018.4 |
| 20260831021122 | 74 | 129 | 0.0 | 0.0 | 0.00 | 0.04 | 0.04 | 94 | 1018.6 |
| 20260831020618 | 74 | 164 | 0.0 | 0.0 | 0.12 | 0.04 | 0.04 | 94 | 1018.6 |
| 20260831020113 | 74 | 117 | 0.0 | 0.0 | 0.24 | 0.04 | 0.04 | 96 | 1018.7 |
| 20260831015609 | 75 | 87 | 0.0 | 0.0 | 0.17 | 0.03 | 0.03 | 95 | 1018.5 |
| 20260831015108 | 77 | 152 | 0.0 | 0.0 | 0.00 | 0.00 | 0.00 | 88 | 1018.2 |
| 20260831014603 | 77 | 122 | 0.0 | 0.0 | 0.00 | 0.00 | 0.00 | 85 | 1018.5 |
| 20260831014058 | 77 | 129 | 0.0 | 0.0 | 0.00 | 0.00 | 0.00 | 84 | 1018.4 |
| 20260831013555 | 77 | 158 | 0.0 | 0.0 | 0.00 | 0.00 | 0.00 | 84 | 1018.5 |
| 20260831013054 | 77 | 101 | 0.0 | 0.0 | 0.00 | 0.00 | 0.00 | 85 | 1018.3 |
| 20260831012554 | 77 | 104 | 0.0 | 0.0 | 0.00 | 0.00 | 0.00 | 86 | 1018.0 |
| 20260831012049 | 77 | 93 | 0.0 | 0.0 | 0.00 | 0.00 | 0.00 | 86 | 1018.0 |
| 20260831011548 | 77 | 93 | 0.0 | 0.0 | 0.00 | 0.00 | 0.00 | 84 | 1018.2 |
| 20260831011044 | 77 | 92 | 0.0 | 0.0 | 0.00 | 0.00 | 0.00 | 83 | 1018.1 |
| 20260831010539 | 77 | 89 | 0.0 | 0.0 | 0.00 | 0.00 | 0.00 | 84 | 1018.1 |
| 20260831010036 | 77 | 97 | 0.0 | 0.0 | 0.00 | 0.00 | 0.00 | 83 | 1018.2 |
| 20260831005530 | 77 | 101 | 0.0 | 0.0 | 0.00 | 0.00 | 0.00 | 83 | 1017.8 |
| 20260831005029 | 77 | 93 | 0.0 | 0.0 | 0.00 | 0.00 | 0.00 | 83 | 1018.0 |
| 20260831004526 | 77 | 94 | 0.0 | 0.0 | 0.00 | 0.00 | 0.00 | 83 | 1017.8 |
| 20260831004021 | 77 | 84 | 0.0 | 0.0 | 0.00 | 0.00 | 0.00 | 82 | 1017.9 |
| 20260831003518 | 78 | 92 | 0.0 | 0.0 | 0.00 | 0.00 | 0.00 | 82 | 1018.0 |
| 20260831003014 | 78 | 73 | 0.0 | 0.0 | 0.00 | 0.00 | 0.00 | 82 | 1017.8 |
| 20260831002512 | 78 | 99 | 0.0 | 0.0 | 0.00 | 0.00 | 0.00 | 81 | 1017.8 |
| 20260831002007 | 78 | 116 | 0.0 | 0.0 | 0.00 | 0.00 | 0.00 | 81 | 1017.7 |
| 20260831001503 | 78 | 110 | 0.0 | 0.0 | 0.00 | 0.00 | 0.00 | 81 | 1017.7 |
| 20260831000959 | 78 | 116 | 0.0 | 0.0 | 0.00 | 0.00 | 0.00 | 80 | 1017.5 |
| 20260831000454 | 79 | 130 | 0.0 | 0.0 | 0.00 | 0.00 | 0.00 | 80 | 1017.6 |
| 20260830235952 | 79 | 72 | 0.0 | 0.0 | 0.00 | 0.00 | 0.00 | 79 | 1017.6 |
| 20260830235448 | 79 | 96 | 0.0 | 0.0 | 0.00 | 0.00 | 0.00 | 79 | 1017.4 |
| 20260830234943 | 80 | 129 | 0.0 | 0.0 | 0.00 | 0.00 | 0.00 | 78 | 1017.6 |
| 20260830234438 | 79 | 109 | 0.0 | 0.0 | 0.00 | 0.00 | 0.00 | 78 | 1017.3 |
| 20260830233934 | 79 | 104 | 0.0 | 0.0 | 0.00 | 0.00 | 0.00 | 78 | 1017.3 |
| 20260830233429 | 80 | 86 | 0.0 | 0.0 | 0.00 | 0.00 | 0.00 | 78 | 1017.4 |
| 20260830232925 | 79 | 123 | 0.0 | 0.0 | 0.00 | 0.00 | 0.00 | 78 | 1017.3 |
| 20260830232421 | 80 | 140 | 0.0 | 0.0 | 0.00 | 0.00 | 0.00 | 77 | 1017.2 |
| 20260830231917 | 80 | 140 | 0.0 | 0.0 | 0.00 | 0.00 | 0.00 | 78 | 1017.1 |
| 20260830231412 | 80 | 84 | 0.0 | 0.0 | 0.00 | 0.00 | 0.00 | 77 | 1017.3 |
| 20260830230911 | 80 | 156 | 0.0 | 0.0 | 0.00 | 0.00 | 0.00 | 77 | 1017.3 |
| 20260830230407 | 80 | 63 | 0.0 | 0.0 | 0.00 | 0.00 | 0.00 | 77 | 1017.4 |
| 20260830225906 | 79 | 136 | 0.0 | 0.0 | 0.00 | 0.00 | 0.00 | 77 | 1017.3 |
| 20260830225401 | 80 | 99 | 0.0 | 0.0 | 0.00 | 0.00 | 0.00 | 77 | 1017.2 |
| 20260830224856 | 80 | 102 | 0.0 | 0.0 | 0.00 | 0.00 | 0.00 | 77 | 1017.2 |
| 20260830224355 | 80 | 99 | 0.0 | 0.0 | 0.00 | 0.00 | 0.00 | 77 | 1017.3 |
| 20260830223852 | 80 | 120 | 0.0 | 0.0 | 0.00 | 0.00 | 0.00 | 76 | 1017.4 |
| 20260830223348 | 80 | 96 | 0.0 | 0.0 | 0.00 | 0.00 | 0.00 | 76 | 1017.2 |
| 20260830222847 | 80 | 121 | 0.0 | 0.0 | 0.00 | 0.00 | 0.00 | 77 | 1017.2 |
| 20260830222343 | 80 | 154 | 0.0 | 0.0 | 0.00 | 0.00 | 0.00 | 77 | 1017.6 |
| 20260830221838 | 80 | 110 | 0.0 | 0.0 | 0.00 | 0.00 | 0.00 | 77 | 1017.5 |
| 20260830221335 | 80 | 123 | 0.0 | 0.0 | 0.00 | 0.00 | 0.00 | 76 | 1017.4 |
| 20260830220830 | 80 | 87 | 0.0 | 0.0 | 0.00 | 0.00 | 0.00 | 76 | 1017.6 |
| 20260830220329 | 80 | 164 | 0.0 | 0.0 | 0.00 | 0.00 | 0.00 | 76 | 1017.5 |
| 20260830215827 | 80 | 116 | 0.0 | 0.0 | 0.00 | 0.00 | 0.00 | 75 | 1017.5 |
| 20260830215322 | 80 | 125 | 0.0 | 0.0 | 0.00 | 0.00 | 0.00 | 75 | 1017.5 |
| 20260830214817 | 80 | 156 | 0.0 | 0.0 | 0.00 | 0.00 | 0.00 | 75 | 1017.5 |
| 20260830214312 | 80 | 106 | 0.0 | 0.0 | 0.00 | 0.00 | 0.00 | 76 | 1017.4 |
| 20260830213812 | 80 | 128 | 0.0 | 0.0 | 0.00 | 0.00 | 0.00 | 75 | 1017.4 |
| 20260830213307 | 80 | 185 | 0.0 | 0.0 | 0.00 | 0.00 | 0.00 | 75 | 1017.4 |
| 20260830212803 | 80 | 98 | 0.0 | 0.0 | 0.00 | 0.00 | 0.00 | 74 | 1017.4 |
| 20260830212259 | 81 | 119 | 0.0 | 1.7 | 0.00 | 0.00 | 0.00 | 74 | 1017.5 |
| 20260830211757 | 80 | 127 | 0.0 | 0.0 | 0.00 | 0.00 | 0.00 | 74 | 1017.4 |
| 20260830211256 | 80 | 76 | 0.0 | 0.0 | 0.00 | 0.00 | 0.00 | 75 | 1017.4 |
| 20260830210753 | 80 | 77 | 0.0 | 0.0 | 0.00 | 0.00 | 0.00 | 75 | 1017.6 |
| 20260830210252 | 80 | 53 | 0.0 | 0.0 | 0.00 | 0.00 | 0.00 | 76 | 1017.6 |
| 20260830205749 | 80 | 112 | 0.0 | 0.0 | 0.00 | 0.00 | 0.00 | 75 | 1017.6 |
| 20260830205244 | 80 | 184 | 0.0 | 0.0 | 0.00 | 0.00 | 0.00 | 75 | 1017.7 |
| 20260830204740 | 80 | 122 | 0.0 | 0.0 | 0.00 | 0.00 | 0.00 | 74 | 1017.6 |
| 20260830204238 | 80 | 145 | 0.0 | 0.0 | 0.00 | 0.00 | 0.00 | 76 | 1017.4 |
| 20260830203735 | 80 | 175 | 0.0 | 0.0 | 0.00 | 0.00 | 0.00 | 76 | 1017.7 |
| 20260830203230 | 79 | 143 | 0.0 | 0.0 | 0.00 | 0.00 | 0.00 | 76 | 1017.8 |
| 20260830202730 | 79 | 181 | 0.0 | 0.0 | 0.00 | 0.00 | 0.00 | 76 | 1017.9 |
| 20260830202225 | 79 | 154 | 0.0 | 0.0 | 0.00 | 0.00 | 0.00 | 76 | 1017.9 |
| 20260830201724 | 80 | 169 | 0.0 | 0.0 | 0.00 | 0.00 | 0.00 | 76 | 1017.8 |
| 20260830201220 | 80 | 146 | 0.0 | 0.0 | 0.00 | 0.00 | 0.00 | 75 | 1017.9 |
| 20260830200715 | 80 | 112 | 0.9 | 1.7 | 0.00 | 0.00 | 0.00 | 75 | 1017.9 |
| 20260830200214 | 79 | 87 | 0.0 | 0.0 | 0.00 | 0.00 | 0.00 | 77 | 1018.0 |
| 20260830195710 | 78 | 125 | 0.0 | 0.0 | 0.00 | 0.00 | 0.00 | 78 | 1018.0 |
| 20260830195208 | 77 | 85 | 0.0 | 0.0 | 0.00 | 0.00 | 0.00 | 80 | 1018.1 |
| 20260830194702 | 76 | 78 | 0.0 | 0.0 | 0.00 | 0.00 | 0.00 | 84 | 1018.3 |
| 20260830194201 | 78 | 109 | 0.0 | 0.9 | 0.00 | 0.00 | 0.00 | 75 | 1018.2 |
| 20260830193656 | 78 | 101 | 0.0 | 0.0 | 0.00 | 0.00 | 0.00 | 75 | 1018.3 |
| 20260830193150 | 78 | 113 | 0.0 | 0.0 | 0.00 | 0.00 | 0.00 | 75 | 1018.3 |
| 20260830192646 | 78 | 114 | 0.0 | 0.0 | 0.00 | 0.00 | 0.00 | 75 | 1018.4 |
| 20260830192141 | 78 | 132 | 0.0 | 0.0 | 0.00 | 0.00 | 0.00 | 75 | 1018.2 |
| 20260830191637 | 78 | 107 | 0.0 | 0.0 | 0.00 | 0.00 | 0.00 | 75 | 1018.3 |
| 20260830191131 | 78 | 117 | 0.0 | 0.0 | 0.00 | 0.00 | 0.00 | 75 | 1018.6 |
| 20260830190621 | 78 | 37 | 0.9 | 2.6 | 0.00 | 0.00 | 0.00 | 75 | 1018.6 |
| 20260830190115 | 78 | 114 | 0.0 | 0.0 | 0.00 | 0.00 | 0.00 | 75 | 1018.9 |
| 20260830185608 | 77 | 67 | 0.0 | 0.0 | 0.00 | 0.00 | 0.00 | 76 | 1018.8 |
| 20260830185059 | 77 | 63 | 0.0 | 0.0 | 0.00 | 0.00 | 0.00 | 77 | 1019.1 |
| 20260830184557 | 77 | 106 | 0.0 | 0.0 | 0.00 | 0.00 | 0.00 | 77 | 1019.2 |
| 20260830184052 | 77 | 114 | 0.0 | 0.0 | 0.00 | 0.00 | 0.00 | 77 | 1019.3 |
| 20260830183547 | 78 | 92 | 0.0 | 0.0 | 0.00 | 0.00 | 0.00 | 76 | 1019.2 |
| 20260830183043 | 78 | 89 | 0.0 | 0.0 | 0.00 | 0.00 | 0.00 | 76 | 1019.3 |
| 20260830182538 | 78 | 115 | 0.0 | 1.7 | 0.00 | 0.00 | 0.00 | 74 | 1019.2 |
| 20260830182034 | 78 | 71 | 0.0 | 0.0 | 0.00 | 0.00 | 0.00 | 75 | 1019.1 |
| 20260830181531 | 78 | 130 | 0.0 | 0.0 | 0.00 | 0.00 | 0.00 | 74 | 1019.2 |
| 20260830181030 | 78 | 98 | 1.7 | 3.5 | 0.00 | 0.00 | 0.00 | 73 | 1019.3 |
| 20260830180529 | 78 | 98 | 0.0 | 0.0 | 0.00 | 0.00 | 0.00 | 74 | 1019.5 |
| 20260830180028 | 79 | 130 | 0.0 | 0.0 | 0.00 | 0.00 | 0.00 | 73 | 1019.3 |
| 20260830175527 | 79 | 125 | 1.7 | 5.2 | 0.00 | 0.00 | 0.00 | 72 | 1019.4 |
| 20260830175023 | 79 | 121 | 1.7 | 2.6 | 0.00 | 0.00 | 0.00 | 73 | 1019.3 |
| 20260830174519 | 79 | 103 | 0.0 | 1.7 | 0.00 | 0.00 | 0.00 | 72 | 1019.8 |
| 20260830174014 | 77 | 148 | 0.0 | 0.0 | 0.00 | 0.00 | 0.00 | 73 | 1019.7 |
| 20260830173509 | 77 | 74 | 0.0 | 0.0 | 0.00 | 0.00 | 0.00 | 74 | 1019.8 |
| 20260830173004 | 78 | 102 | 1.7 | 2.6 | 0.00 | 0.00 | 0.00 | 73 | 1019.8 |
| 20260830172501 | 78 | 118 | 4.3 | 7.0 | 0.00 | 0.00 | 0.00 | 73 | 1019.7 |
| 20260830171956 | 77 | 94 | 0.0 | 0.9 | 0.00 | 0.00 | 0.00 | 73 | 1020.0 |
| 20260830171451 | 77 | 77 | 0.0 | 0.9 | 0.00 | 0.00 | 0.00 | 73 | 1019.8 |
| 20260830170951 | 78 | 160 | 2.6 | 5.2 | 0.00 | 0.00 | 0.00 | 71 | 1019.9 |
| 20260830170446 | 78 | 112 | 2.6 | 5.2 | 0.00 | 0.00 | 0.00 | 71 | 1020.0 |
| 20260830165944 | 78 | 119 | 2.6 | 7.0 | 0.00 | 0.00 | 0.00 | 69 | 1020.0 |
| 20260830165441 | 79 | 46 | 0.0 | 0.0 | 0.00 | 0.00 | 0.00 | 70 | 1019.9 |
| 20260830164936 | 78 | 124 | 0.0 | 0.0 | 0.00 | 0.00 | 0.00 | 71 | 1020.0 |
| 20260830164432 | 77 | 142 | 0.0 | 0.0 | 0.00 | 0.00 | 0.00 | 71 | 1020.2 |
| 20260830163928 | 76 | 91 | 0.0 | 0.0 | 0.00 | 0.00 | 0.00 | 76 | 1020.0 |
| 20260830163425 | 76 | 138 | 0.0 | 0.0 | 0.00 | 0.00 | 0.00 | 75 | 1020.1 |
| 20260830162923 | 75 | 117 | 0.0 | 0.0 | 0.00 | 0.00 | 0.00 | 77 | 1020.2 |
| 20260830162420 | 75 | 108 | 0.0 | 0.0 | 0.00 | 0.00 | 0.00 | 78 | 1020.5 |
| 20260830161920 | 76 | 73 | 0.0 | 0.0 | 0.00 | 0.00 | 0.00 | 77 | 1020.6 |
| 20260830161419 | 76 | 90 | 0.0 | 0.0 | 0.00 | 0.00 | 0.00 | 72 | 1020.5 |
| 20260830160914 | 76 | 87 | 0.0 | 0.0 | 0.00 | 0.00 | 0.00 | 71 | 1020.6 |
| 20260830160411 | 77 | 92 | 0.0 | 0.0 | 0.00 | 0.00 | 0.00 | 69 | 1020.5 |
| 20260830155906 | 77 | 128 | 0.0 | 0.0 | 0.00 | 0.00 | 0.00 | 69 | 1020.5 |
| 20260830155402 | 77 | 96 | 0.0 | 0.0 | 0.00 | 0.00 | 0.00 | 69 | 1020.6 |
| 20260830154856 | 77 | 103 | 0.9 | 2.6 | 0.00 | 0.00 | 0.00 | 69 | 1020.5 |
| 20260830154353 | 78 | 101 | 0.9 | 1.7 | 0.00 | 0.00 | 0.00 | 67 | 1020.5 |
| 20260830153849 | 77 | 107 | 3.5 | 3.5 | 0.00 | 0.00 | 0.00 | 68 | 1020.7 |
| 20260830153344 | 77 | 110 | 1.7 | 2.6 | 0.00 | 0.00 | 0.00 | 69 | 1021.0 |
| 20260830152843 | 76 | 90 | 0.0 | 0.0 | 0.00 | 0.00 | 0.00 | 71 | 1020.9 |
| 20260830152338 | 75 | 132 | 0.9 | 2.6 | 0.00 | 0.00 | 0.00 | 71 | 1020.9 |
| 20260830151833 | 75 | 157 | 0.0 | 0.0 | 0.00 | 0.00 | 0.00 | 72 | 1021.3 |
| 20260830151332 | 75 | 125 | 0.0 | 0.0 | 0.00 | 0.00 | 0.00 | 71 | 1021.1 |
| 20260830150827 | 75 | 131 | 0.9 | 3.5 | 0.00 | 0.00 | 0.00 | 72 | 1021.1 |
| 20260830150326 | 75 | 74 | 0.0 | 0.0 | 0.00 | 0.00 | 0.00 | 71 | 1021.0 |
| 20260830145821 | 75 | 82 | 1.7 | 3.5 | 0.00 | 0.00 | 0.00 | 70 | 1021.1 |
| 20260830145316 | 75 | 66 | 0.9 | 3.5 | 0.00 | 0.00 | 0.00 | 72 | 1021.2 |
| 20260830144811 | 75 | 107 | 1.7 | 5.2 | 0.00 | 0.00 | 0.00 | 70 | 1021.4 |
| 20260830144307 | 75 | 120 | 0.9 | 2.6 | 0.00 | 0.00 | 0.00 | 68 | 1021.3 |
| 20260830143803 | 76 | 75 | 0.0 | 1.7 | 0.00 | 0.00 | 0.00 | 67 | 1021.3 |
| 20260830143303 | 78 | 98 | 1.7 | 5.2 | 0.00 | 0.00 | 0.00 | 65 | 1021.3 |
| 20260830142757 | 77 | 128 | 0.0 | 0.0 | 0.00 | 0.00 | 0.00 | 65 | 1021.0 |
| 20260830142252 | 77 | 94 | 0.0 | 0.0 | 0.00 | 0.00 | 0.00 | 64 | 1021.3 |
| 20260830141747 | 76 | 122 | 0.0 | 0.0 | 0.00 | 0.00 | 0.00 | 65 | 1021.2 |
| 20260830141242 | 76 | 110 | 0.9 | 2.6 | 0.00 | 0.00 | 0.00 | 64 | 1021.4 |
| 20260830140737 | 77 | 107 | 0.0 | 0.0 | 0.00 | 0.00 | 0.00 | 63 | 1021.3 |
| 20260830140231 | 76 | 66 | 0.0 | 0.0 | 0.00 | 0.00 | 0.00 | 62 | 1021.4 |
| 20260830135726 | 76 | 99 | 0.0 | 1.7 | 0.00 | 0.00 | 0.00 | 60 | 1021.3 |
| 20260830135222 | 76 | 59 | 0.0 | 0.0 | 0.00 | 0.00 | 0.00 | 60 | 1021.6 |
| 20260830134717 | 76 | 132 | 0.0 | 0.0 | 0.00 | 0.00 | 0.00 | 60 | 1021.6 |
| 20260830134212 | 74 | 117 | 0.0 | 0.9 | 0.00 | 0.00 | 0.00 | 62 | 1021.6 |
| 20260830133708 | 75 | 127 | 0.9 | 2.6 | 0.00 | 0.00 | 0.00 | 61 | 1021.9 |
| 20260830133204 | 75 | 117 | 0.0 | 0.0 | 0.00 | 0.00 | 0.00 | 61 | 1022.0 |
| 20260830132659 | 75 | 118 | 0.0 | 0.0 | 0.00 | 0.00 | 0.00 | 61 | 1021.9 |
| 20260830132155 | 75 | 83 | 0.9 | 1.7 | 0.00 | 0.00 | 0.00 | 60 | 1022.1 |
| 20260830131654 | 75 | 103 | 0.0 | 0.0 | 0.00 | 0.00 | 0.00 | 61 | 1021.9 |
| 20260830131148 | 74 | 135 | 0.0 | 0.0 | 0.00 | 0.00 | 0.00 | 61 | 1022.1 |
| 20260830130637 | 75 | 101 | 0.0 | 0.0 | 0.00 | 0.00 | 0.00 | 61 | 1021.9 |
| 20260830130132 | 74 | 75 | 0.0 | 0.0 | 0.00 | 0.00 | 0.00 | 62 | 1022.2 |
| 20260830125631 | 73 | 129 | 0.0 | 0.0 | 0.00 | 0.00 | 0.00 | 61 | 1022.1 |
| 20260830125126 | 73 | 90 | 0.0 | 0.0 | 0.00 | 0.00 | 0.00 | 60 | 1021.9 |
| 20260830124624 | 73 | 61 | 0.0 | 0.0 | 0.00 | 0.00 | 0.00 | 61 | 1022.0 |
| 20260830124120 | 74 | 67 | 0.0 | 0.0 | 0.00 | 0.00 | 0.00 | 60 | 1022.1 |
| 20260830123617 | 73 | 119 | 0.0 | 0.0 | 0.00 | 0.00 | 0.00 | 61 | 1022.2 |
| 20260830123112 | 73 | 98 | 0.0 | 0.0 | 0.00 | 0.00 | 0.00 | 61 | 1022.4 |
| 20260830122609 | 73 | 117 | 0.0 | 0.0 | 0.00 | 0.00 | 0.00 | 62 | 1022.2 |
| 20260830122105 | 73 | 111 | 0.0 | 0.0 | 0.00 | 0.00 | 0.00 | 63 | 1022.1 |
| 20260830121601 | 73 | 77 | 0.0 | 0.0 | 0.00 | 0.00 | 0.00 | 64 | 1022.2 |
| 20260830121100 | 72 | 123 | 0.0 | 0.0 | 0.00 | 0.00 | 0.00 | 65 | 1022.1 |
| 20260830120555 | 72 | 107 | 0.0 | 0.0 | 0.00 | 0.00 | 0.00 | 65 | 1021.9 |
| 20260830120051 | 71 | 78 | 0.0 | 0.0 | 0.00 | 0.00 | 0.00 | 67 | 1022.0 |
| 20260830115547 | 71 | 104 | 0.0 | 0.0 | 0.00 | 0.00 | 0.00 | 70 | 1022.1 |
| 20260830115043 | 71 | 124 | 0.0 | 0.0 | 0.00 | 0.00 | 0.00 | 70 | 1022.2 |
| 20260830114539 | 71 | 87 | 0.0 | 0.0 | 0.00 | 0.00 | 0.00 | 71 | 1022.0 |
| 20260830114038 | 70 | 104 | 0.0 | 0.0 | 0.00 | 0.00 | 0.00 | 74 | 1022.0 |
| 20260830113534 | 70 | 119 | 0.0 | 0.0 | 0.00 | 0.00 | 0.00 | 73 | 1022.1 |
| 20260830113029 | 70 | 108 | 0.0 | 0.0 | 0.00 | 0.00 | 0.00 | 75 | 1022.1 |
| 20260830112525 | 70 | 110 | 0.0 | 0.0 | 0.00 | 0.00 | 0.00 | 75 | 1022.0 |
| 20260830112021 | 70 | 128 | 0.0 | 0.0 | 0.00 | 0.00 | 0.00 | 75 | 1022.1 |
| 20260830111516 | 70 | 110 | 0.0 | 0.0 | 0.00 | 0.00 | 0.00 | 76 | 1021.8 |
| 20260830111013 | 69 | 98 | 0.0 | 0.0 | 0.00 | 0.00 | 0.00 | 77 | 1021.9 |
| 20260830110512 | 68 | 86 | 0.0 | 0.0 | 0.00 | 0.00 | 0.00 | 78 | 1022.0 |
| 20260830110007 | 69 | 72 | 0.0 | 0.0 | 0.00 | 0.00 | 0.00 | 78 | 1021.9 |
| 20260830105503 | 69 | 101 | 0.0 | 0.0 | 0.00 | 0.00 | 0.00 | 77 | 1021.8 |
| 20260830104959 | 70 | 107 | 0.0 | 0.0 | 0.00 | 0.00 | 0.00 | 75 | 1021.8 |
| 20260830104455 | 69 | 126 | 0.0 | 0.0 | 0.00 | 0.00 | 0.00 | 76 | 1022.0 |
| 20260830103950 | 69 | 117 | 0.0 | 0.0 | 0.00 | 0.00 | 0.00 | 76 | 1021.8 |
| 20260830103446 | 69 | 104 | 0.0 | 0.0 | 0.00 | 0.00 | 0.00 | 75 | 1021.8 |
| 20260830102944 | 69 | 101 | 0.0 | 0.0 | 0.00 | 0.00 | 0.00 | 76 | 1021.6 |
| 20260830102439 | 69 | 118 | 0.0 | 0.0 | 0.00 | 0.00 | 0.00 | 76 | 1021.8 |
| 20260830101935 | 69 | 169 | 0.0 | 0.0 | 0.00 | 0.00 | 0.00 | 77 | 1021.8 |
| 20260830101431 | 69 | 130 | 0.0 | 0.0 | 0.00 | 0.00 | 0.00 | 78 | 1021.8 |
| 20260830100930 | 69 | 144 | 0.0 | 0.0 | 0.00 | 0.00 | 0.00 | 78 | 1021.8 |
| 20260830100429 | 69 | 142 | 0.0 | 0.0 | 0.00 | 0.00 | 0.00 | 79 | 1021.9 |
| 20260830095928 | 69 | 94 | 0.0 | 0.0 | 0.00 | 0.00 | 0.00 | 80 | 1022.0 |
| 20260830095424 | 69 | 104 | 0.0 | 0.0 | 0.00 | 0.00 | 0.00 | 79 | 1021.7 |